Regional Weather Roundup
Issued by NWS

Home | Current Version | Previous Version | Text Only | Print | Product List | Glossary Off
Versions: 1 2 3 4 5 6 7 8 9 10 11 12 13 14 15 16 17 18 19 20 21 22 23 24 25 26 27 28 29 30 31 32 33 34 35 36 37 38 39 40 41 42 43 44 45 46 47 48 49 50

000
ASUS43 KMKX 040500
RWRWI

WISCONSIN REGIONAL WEATHER ROUNDUP
NATIONAL WEATHER SERVICE MILWAUKEE/SULLIVAN WI
1200 AM CDT TUE AUG 04 2015

NOTE: "FAIR" INDICATES FEW OR NO CLOUDS BELOW 12,000 FEET WITH NO
SIGNIFICANT WEATHER AND/OR OBSTRUCTIONS TO VISIBILITY.

WIZ001-002-006>008-014>016-023>028-040600-
NORTHWEST WISCONSIN

CITY           SKY/WX    TMP DP  RH WIND       PRES   REMARKS
SUPERIOR ARPT  CLEAR     56  51  83 SW3       29.90S
ASHLAND        CLOUDY    61  55  81 VRB3      29.89R
HAYWARD        CLEAR     61  52  72 CALM      29.92R
SIREN          PTCLDY    58  52  81 NW3       29.93S
CUMBERLAND     CLEAR     59  52  77 NW5       29.93S
RICE LAKE      MOCLDY    61  54  76 NW3       29.94R
CHETEK         MOCLDY    64  56  73 W5        29.92R
LADYSMITH      PTCLDY    64  54  72 W8        29.92R
EAU CLAIRE     NOT AVBL
MENOMONIE      MOCLDY    64  55  72 W5        29.92R
NEW RICHMOND   PTCLDY    59  53  78 NW6       29.94R
OSCEOLA        PTCLDY    62  55  78 CALM      29.96R
$$

WIZ003>005-009-010-017-018-040600-
NORTH CENTRAL WISCONSIN

CITY           SKY/WX    TMP DP  RH WIND       PRES   REMARKS
MANITOWISH WTR CLOUDY    57  57 100 W3        29.89S
ARBOR VITAE    CLOUDY    59  57  91 NW3       29.89S
WOODRUFF       CLOUDY    59  57  91 NW3       29.89S
RHINELANDER    CLOUDY    60  55  83 CALM      29.90R
EAGLE RIVER    CLOUDY    56  56 100 W6        29.89R
LAND O LAKES   CLOUDY    58  56  94 W6        29.89S
PHILLIPS       MOCLDY    60  56  87 CALM      29.89R
TOMAHAWK       CLOUDY    58  54  87 CALM      29.90R
MEDFORD        CLOUDY    61  56  82 W3        29.91R
MERRILL        NOT AVBL
$$

WIZ029-030-035-036-043>047-040600-
CENTRAL WISCONSIN

CITY           SKY/WX    TMP DP  RH WIND       PRES   REMARKS
WAUSAU         CLOUDY    65  55  70 NW7       29.88S
MOSINEE        CLOUDY    61  54  77 W5        29.90S
MARSHFIELD     CLOUDY    61  53  75 SW3       29.90S
STEVENS POINT  CLOUDY    58  52  81 W5        29.90S
WAUPACA        CLEAR     59  54  84 CALM      29.90R
WAUTOMA        NOT AVBL
WISC RAPIDS    CLOUDY    59  53  80 CALM      29.91S
CAMP DOUGLAS   NOT AVBL
$$

WIZ011>013-019>022-031-037>040-048>050-040600-
NORTHEAST WISCONSIN

CITY           SKY/WX    TMP DP  RH WIND       PRES   REMARKS
ANTIGO         PTCLDY    55  54  95 W3        29.90R
SHAWANO        CLEAR     61  55  82 CALM      29.88R
OCONTO         MOCLDY    56  56 100 CALM      29.85S
STURGEON BAY   CLOUDY    59  52  77 SW3       29.87F
GREEN BAY      CLEAR     60  56  86 W6        29.87S
MANITOWOC      NOT AVBL
APPLETON       CLEAR     61  50  67 W6        29.89S
CLINTONVILLE   CLEAR     55  52  88 SW5       29.88S
OSHKOSH        CLEAR     62  53  72 W3        29.89S
$$

WIZ032>034-041-042-053>061-040600-
SOUTHWEST WISCONSIN

CITY           SKY/WX    TMP DP  RH WIND       PRES   REMARKS
LA CROSSE      CLEAR     63  55  75 SE5       29.91S
SPARTA         MOCLDY    55  53  91 CALM      29.93S
VIROQUA        CLEAR     56  54  91 CALM      29.94S
BOSCOBEL       CLEAR     56  53  90 CALM      29.94R
PRAIRIE DU CHI CLEAR     60  54  82 CALM      29.93R
PLATTEVILLE    CLEAR     63  55  75 SW5       29.94S
$$

WIZ056-057-062-063-064-067-068-040600-
SOUTH CENTRAL WISCONSIN

CITY           SKY/WX    TMP DP  RH WIND       PRES   REMARKS
REEDSBURG      CLEAR     60  54  78 CALM      29.92S
BARABOO/DELLS  CLEAR     59  50  72 CALM      29.92S
LONE ROCK      NOT AVBL
MINERAL POINT  CLEAR     64  52  63 W3        29.94S
MADISON        CLEAR     65  52  62 W5        29.92R
MIDDLETON      CLEAR     60  54  82 CALM      29.93S
WATERTOWN      CLEAR     58  56  93 CALM      29.91R
MONROE         CLEAR     66  54  63 W8        29.93S
JANESVILLE     PTCLDY    63  54  72 CALM      29.92R
$$

WIZ051-052-058>065-066-070>072-040600-
SOUTHEAST WISCONSIN

CITY           SKY/WX    TMP DP  RH WIND       PRES   REMARKS
MILWAUKEE      PTCLDY    71  50  47 NW6       29.90R
WAUKESHA       CLEAR     63  50  63 W7        29.92R
MILWAUKEE/TIMM CLEAR     64  48  55 NW5       29.91R
RACINE         PTCLDY    66  52  60 W5        29.91S
BURLINGTON     CLEAR     58  52  78 CALM      29.91S
KENOSHA        PTCLDY    62  54  74 W3        29.91R
FOND DU LAC    CLEAR     62  55  77 W3        29.90R
SHEBOYGAN      FAIR      61  55  81 W6        29.89R
WEST BEND      CLEAR     63  52  67 W3        29.90S
JUNEAU         CLEAR     59  53  78 CALM      29.92S
$$

LSZ147-162-040600-
LAKE SUPERIOR

STATION/POSITION TIME  TEMP    WIND        PRES    WAVE
                       AIR SEA DIR/SP/G            HT/PER
                 (UTC) (F)     (DEG/KT/KT) (MB)    (FT/S)
W MID LAKE BUOY  0350   58 56  280/ 12/ 14 1009.8R   2/ 4
DEVILS ISLAND    0400   57     260/ 12/ 14 1011.2R
PORT WING        0400   63     260/  7/ 10 1011.9
SAXON HARBOR     0440   63     210/  3     1011.2S
$$

LMZ867-665-643>646-040600-
LAKE MICHIGAN

STATION/POSITION TIME  TEMP    WIND        PRES    WAVE
                       AIR SEA DIR/SP/G            HT/PER
                 (UTC) (F)     (DEG/KT/KT) (MB)    (FT/S)
CHAMBERS ISLAND  0400   65     230/  2/  4 1010.5S
N MID LAKE BUOY  0350   65 68  180/  2/  4 1009.8F   1
NORTHPORT PIER   0400   68     290/  3/  6 1010.2S
SISTER BAY       0418   69     310/  9/ 10   N/A
ALGOMA LAKESHORE 0412             CALM       N/A
KEWAUNEE LAKESHO 0400   63     290/  3/  4 1010.5R
SHEBOYGAN LAKESH 0400   69     270/  5/  7 1011.8R
PORT WASHINGTON  0440   68     290/  3/  5 1012.9R
ATWATER BUOY     0400   68 65  290/  8/ 10 1013.5R
MILWAUKEE LAKESH 0400   73     300/  6/ 10   N/A
KENOSHA   LAKESH 0400   72     280/  7/  9 1011.9R
$$

TC  - TEMPERATURE IN CELSIUS
VSB - VISIBILITY IN STATUTE MILES
WCI - WIND CHILL INDEX
HX  - HEAT INDEX



USA.gov is the U.S. government's official web portal to all federal, state and local government web resources and services.